Location: Preissac
(48.4072°N, 78.3618°W)
Time: 19:22:57
(UTC-04:00)

Envisat - Visible Passes

Search period start: 25 August 2019 00:00
Search period end: 04 September 2019 00:00
Orbit: 764 x 766 km, 98.1° (Epoch: 25 August)

Date Brightness Start Highest point End Pass type
(mag) Time Alt. Az. Time Alt. Az. Time Alt. Az.
26 Aug 6.0 20:56:33 10° WSW 20:59:12 14° W 21:01:53 10° NW visible
29 Aug 5.8 20:44:27 10° SW 20:47:48 18° W 20:51:11 10° NW visible
31 Aug 6.5 21:13:21 10° W 21:13:42 10° W 21:14:04 10° W visible
01 Sep 5.7 20:32:34 10° SW 20:36:25 22° W 20:40:19 10° NW visible
03 Sep 6.1 20:59:59 10° WSW 21:02:17 13° W 21:04:34 10° WNW visible
